#datetime,building,power
2022-10-29T00:01:00,pkn,1.20
2022-10-29T00:02:00,pkn,1.20
2022-10-29T00:05:00,pkn,2.40
2022-10-29T00:06:00,pkn,1.20
2022-10-29T00:08:00,pkn,1.20
2022-10-29T00:09:00,pkn,1.20
2022-10-29T00:11:00,pkn,1.20
2022-10-29T00:13:00,pkn,2.40
2022-10-29T00:14:00,pkn,1.20
2022-10-29T00:16:00,pkn,2.40
2022-10-29T00:18:00,pkn,1.20
2022-10-29T00:20:00,pkn,2.40
2022-10-29T00:22:00,pkn,3.60
2022-10-29T00:23:00,pkn,1.20
2022-10-29T00:25:00,pkn,2.40
2022-10-29T00:26:00,pkn,1.20
2022-10-29T00:28:00,pkn,1.20
2022-10-29T00:30:00,pkn,2.40
2022-10-29T00:31:00,pkn,2.40
2022-10-29T00:33:00,pkn,10.80
2022-10-29T00:35:00,pkn,9.60
2022-10-29T00:37:00,pkn,10.80
2022-10-29T00:39:00,pkn,4.80
2022-10-29T00:41:00,pkn,2.40
2022-10-29T00:43:00,pkn,2.40
2022-10-29T00:46:00,pkn,2.40
2022-10-29T00:48:00,pkn,2.40
2022-10-29T00:49:00,pkn,1.20
2022-10-29T00:51:00,pkn,1.20
2022-10-29T00:53:00,pkn,2.40
2022-10-29T00:55:00,pkn,1.20
2022-10-29T00:56:00,pkn,1.20
2022-10-29T00:57:00,pkn,1.20
2022-10-29T00:59:00,pkn,2.40
2022-10-29T01:01:00,pkn,1.20
2022-10-29T01:02:00,pkn,1.20
2022-10-29T01:03:00,pkn,1.20
2022-10-29T01:05:00,pkn,2.40
2022-10-29T01:07:00,pkn,1.20
2022-10-29T01:09:00,pkn,2.40
2022-10-29T01:11:00,pkn,2.40
2022-10-29T01:12:00,pkn,1.20
2022-10-29T01:15:00,pkn,2.40
2022-10-29T01:17:00,pkn,2.40
2022-10-29T01:19:00,pkn,2.40
2022-10-29T01:21:00,pkn,6.00
2022-10-29T01:23:00,pkn,10.80
2022-10-29T01:24:00,pkn,6.00
2022-10-29T01:26:00,pkn,9.60
2022-10-29T01:28:00,pkn,3.60
2022-10-29T01:29:00,pkn,1.20
2022-10-29T01:31:00,pkn,1.20
2022-10-29T01:32:00,pkn,1.20
2022-10-29T01:34:00,pkn,1.20
2022-10-29T01:36:00,pkn,2.40
2022-10-29T01:38:00,pkn,7.20
2022-10-29T01:40:00,pkn,10.80
2022-10-29T01:41:00,pkn,4.80
2022-10-29T01:43:00,pkn,9.60
2022-10-29T01:45:00,pkn,10.80
2022-10-29T01:47:00,pkn,8.40
2022-10-29T01:49:00,pkn,9.60
2022-10-29T01:50:00,pkn,6.00
2022-10-29T01:52:00,pkn,1.20
2022-10-29T01:54:00,pkn,1.20
2022-10-29T01:56:00,pkn,1.20
2022-10-29T01:59:00,pkn,2.40
2022-10-29T02:01:00,pkn,1.20
2022-10-29T02:03:00,pkn,1.20
2022-10-29T02:05:00,pkn,1.20
2022-10-29T02:07:00,pkn,1.20
2022-10-29T02:09:00,pkn,3.60
2022-10-29T02:10:00,pkn,6.00
2022-10-29T02:12:00,pkn,7.20
2022-10-29T02:14:00,pkn,9.60
2022-10-29T02:16:00,pkn,9.60
2022-10-29T02:18:00,pkn,4.80
2022-10-29T02:19:00,pkn,1.20
2022-10-29T02:21:00,pkn,1.20
2022-10-29T02:23:00,pkn,1.20
2022-10-29T02:25:00,pkn,1.20
2022-10-29T02:27:00,pkn,1.20
2022-10-29T02:28:00,pkn,1.20
2022-10-29T02:30:00,pkn,1.20
2022-10-29T02:32:00,pkn,1.20
2022-10-29T02:34:00,pkn,1.20
2022-10-29T02:36:00,pkn,1.20
2022-10-29T02:39:00,pkn,1.20
2022-10-29T02:40:00,pkn,1.20
2022-10-29T02:43:00,pkn,1.20
2022-10-29T02:45:00,pkn,1.20
2022-10-29T02:46:00,pkn,1.20
2022-10-29T02:47:00,pkn,2.40
2022-10-29T02:48:00,pkn,1.20
2022-10-29T02:49:00,pkn,8.40
2022-10-29T02:52:00,pkn,9.60
2022-10-29T02:53:00,pkn,9.60
2022-10-29T02:54:00,pkn,3.60
2022-10-29T02:56:00,pkn,2.40
2022-10-29T02:58:00,pkn,1.20
2022-10-29T03:00:00,pkn,1.20
2022-10-29T03:01:00,pkn,1.20
2022-10-29T03:03:00,pkn,1.20
2022-10-29T03:05:00,pkn,1.20
2022-10-29T03:07:00,pkn,1.20
2022-10-29T03:09:00,pkn,2.40
2022-10-29T03:11:00,pkn,1.20
2022-10-29T03:13:00,pkn,1.20
2022-10-29T03:15:00,pkn,1.20
2022-10-29T03:16:00,pkn,1.20
2022-10-29T03:18:00,pkn,1.20
2022-10-29T03:20:00,pkn,1.20
2022-10-29T03:21:00,pkn,1.20
2022-10-29T03:24:00,pkn,2.40
2022-10-29T03:26:00,pkn,1.20
2022-10-29T03:28:00,pkn,1.20
2022-10-29T03:30:00,pkn,1.20
2022-10-29T03:32:00,pkn,1.20
2022-10-29T03:34:00,pkn,1.20
2022-10-29T03:36:00,pkn,1.20
2022-10-29T03:37:00,pkn,1.20
2022-10-29T03:39:00,pkn,1.20
2022-10-29T03:41:00,pkn,1.20
2022-10-29T03:44:00,pkn,6.00
2022-10-29T03:45:00,pkn,1.20
2022-10-29T03:46:00,pkn,9.59
2022-10-29T03:48:00,pkn,9.60
2022-10-29T03:50:00,pkn,8.40
2022-10-29T03:52:00,pkn,1.20
2022-10-29T03:54:00,pkn,1.20
2022-10-29T03:57:00,pkn,1.20
2022-10-29T03:59:00,pkn,1.20
2022-10-29T04:01:00,pkn,1.20
2022-10-29T04:02:00,pkn,1.20
2022-10-29T04:04:00,pkn,1.20
2022-10-29T04:06:00,pkn,1.20
2022-10-29T04:08:00,pkn,1.20
2022-10-29T04:10:00,pkn,1.20
2022-10-29T04:12:00,pkn,1.20
2022-10-29T04:15:00,pkn,1.20
2022-10-29T04:17:00,pkn,2.40
2022-10-29T04:20:00,pkn,1.20
2022-10-29T04:22:00,pkn,1.20
2022-10-29T04:25:00,pkn,1.20
2022-10-29T04:27:00,pkn,1.20
2022-10-29T04:29:00,pkn,1.20
2022-10-29T04:30:00,pkn,1.20
2022-10-29T04:33:00,pkn,1.20
2022-10-29T04:35:00,pkn,2.40
2022-10-29T04:37:00,pkn,1.20
2022-10-29T04:39:00,pkn,1.20
2022-10-29T04:41:00,pkn,1.20
2022-10-29T04:44:00,pkn,1.20
2022-10-29T04:45:00,pkn,1.20
2022-10-29T04:48:00,pkn,1.20
2022-10-29T04:49:00,pkn,1.20
2022-10-29T04:51:00,pkn,1.20
2022-10-29T04:53:00,pkn,1.20
2022-10-29T04:55:00,pkn,1.20
2022-10-29T04:57:00,pkn,9.60
2022-10-29T04:58:00,pkn,6.00
2022-10-29T05:00:00,pkn,8.40
2022-10-29T05:02:00,pkn,6.00
2022-10-29T05:04:00,pkn,1.20
2022-10-29T05:05:00,pkn,1.20
2022-10-29T05:07:00,pkn,1.20
2022-10-29T05:09:00,pkn,1.20
2022-10-29T05:11:00,pkn,1.20
2022-10-29T05:12:00,pkn,1.20
2022-10-29T05:15:00,pkn,1.20
2022-10-29T05:17:00,pkn,1.20
2022-10-29T05:20:00,pkn,2.40
2022-10-29T05:23:00,pkn,1.20
2022-10-29T05:25:00,pkn,1.20
2022-10-29T05:27:00,pkn,1.20
2022-10-29T05:29:00,pkn,1.20
2022-10-29T05:31:00,pkn,1.20
2022-10-29T05:33:00,pkn,1.20
2022-10-29T05:35:00,pkn,1.20
2022-10-29T05:36:00,pkn,1.20
2022-10-29T05:38:00,pkn,1.20
2022-10-29T05:41:00,pkn,1.20
2022-10-29T05:44:00,pkn,2.40
2022-10-29T05:46:00,pkn,1.20
2022-10-29T05:48:00,pkn,1.20
2022-10-29T05:50:00,pkn,1.20
2022-10-29T05:53:00,pkn,1.20
2022-10-29T05:55:00,pkn,1.20
2022-10-29T05:57:00,pkn,1.20
2022-10-29T05:58:00,pkn,1.20
2022-10-29T06:00:00,pkn,1.20
2022-10-29T06:02:00,pkn,1.20
2022-10-29T06:05:00,pkn,1.20
2022-10-29T06:06:00,pkn,1.20
2022-10-29T06:10:00,pkn,1.20
2022-10-29T06:12:00,pkn,2.40
2022-10-29T06:15:00,pkn,1.20
2022-10-29T06:17:00,pkn,2.40
2022-10-29T06:19:00,pkn,1.20
2022-10-29T06:21:00,pkn,1.20
2022-10-29T06:23:00,pkn,1.20
2022-10-29T06:25:00,pkn,7.20
2022-10-29T06:27:00,pkn,8.40
2022-10-29T06:29:00,pkn,10.80
2022-10-29T06:30:00,pkn,3.60
2022-10-29T06:32:00,pkn,2.40
2022-10-29T06:33:00,pkn,1.20
2022-10-29T06:35:00,pkn,1.20
2022-10-29T06:37:00,pkn,1.20
2022-10-29T06:39:00,pkn,1.20
2022-10-29T06:41:00,pkn,1.20
2022-10-29T06:42:00,pkn,1.20
2022-10-29T06:44:00,pkn,1.20
2022-10-29T06:47:00,pkn,1.20
2022-10-29T06:48:00,pkn,1.20
2022-10-29T06:51:00,pkn,1.20
2022-10-29T06:53:00,pkn,1.20
2022-10-29T06:55:00,pkn,1.20
2022-10-29T06:57:00,pkn,1.20
2022-10-29T06:59:00,pkn,1.20
2022-10-29T07:02:00,pkn,1.20
2022-10-29T07:03:00,pkn,1.20
2022-10-29T07:05:00,pkn,1.20
2022-10-29T07:07:00,pkn,1.20
2022-10-29T07:08:00,pkn,1.20
2022-10-29T07:11:00,pkn,1.20
2022-10-29T07:13:00,pkn,1.20
2022-10-29T07:15:00,pkn,1.20
2022-10-29T07:17:00,pkn,1.20
2022-10-29T07:18:00,pkn,1.20
2022-10-29T07:20:00,pkn,1.20
2022-10-29T07:22:00,pkn,1.20
2022-10-29T07:25:00,pkn,1.20
2022-10-29T07:28:00,pkn,1.20
2022-10-29T07:29:00,pkn,1.20
2022-10-29T07:31:00,pkn,1.20
2022-10-29T07:33:00,pkn,1.20
2022-10-29T07:35:00,pkn,1.20
2022-10-29T07:37:00,pkn,1.20
2022-10-29T07:40:00,pkn,1.20
2022-10-29T07:41:00,pkn,1.20
2022-10-29T07:43:00,pkn,1.20
2022-10-29T07:45:00,pkn,1.20
2022-10-29T07:46:00,pkn,1.20
2022-10-29T07:48:00,pkn,1.20
2022-10-29T07:50:00,pkn,1.20
2022-10-29T07:52:00,pkn,1.20
2022-10-29T07:54:00,pkn,1.20
2022-10-29T07:56:00,pkn,1.20
2022-10-29T07:59:00,pkn,1.20
2022-10-29T08:00:00,pkn,1.20
2022-10-29T08:02:00,pkn,1.20
2022-10-29T08:03:00,pkn,4.80
2022-10-29T08:04:00,pkn,4.80
2022-10-29T08:06:00,pkn,9.60
2022-10-29T08:08:00,pkn,9.59
2022-10-29T08:09:00,pkn,4.80
2022-10-29T08:11:00,pkn,3.60
2022-10-29T08:14:00,pkn,1.20
2022-10-29T08:15:00,pkn,1.20
2022-10-29T08:17:00,pkn,1.20
2022-10-29T08:19:00,pkn,1.20
2022-10-29T08:20:00,pkn,1.20
2022-10-29T08:22:00,pkn,1.20
2022-10-29T08:23:00,pkn,2.40
2022-10-29T08:24:00,pkn,1.20
2022-10-29T08:26:00,pkn,6.00
2022-10-29T08:27:00,pkn,6.00
2022-10-29T08:29:00,pkn,9.60
2022-10-29T08:31:00,pkn,12.00
2022-10-29T08:32:00,pkn,3.60
2022-10-29T08:33:00,pkn,7.20
2022-10-29T08:35:00,pkn,2.40
2022-10-29T08:36:00,pkn,1.20
2022-10-29T08:38:00,pkn,3.60
2022-10-29T08:40:00,pkn,2.40
2022-10-29T08:42:00,pkn,2.40
2022-10-29T08:43:00,pkn,1.20
2022-10-29T08:45:00,pkn,2.40
2022-10-29T08:46:00,pkn,1.20
2022-10-29T08:47:00,pkn,1.20
2022-10-29T08:49:00,pkn,2.40
2022-10-29T08:51:00,pkn,2.40
2022-10-29T08:53:00,pkn,2.40
2022-10-29T08:55:00,pkn,2.40
2022-10-29T08:57:00,pkn,2.40
2022-10-29T08:59:00,pkn,1.20
2022-10-29T09:01:00,pkn,1.20
2022-10-29T09:03:00,pkn,4.80
2022-10-29T09:04:00,pkn,6.00
2022-10-29T09:05:00,pkn,3.60
2022-10-29T09:07:00,pkn,9.60
2022-10-29T09:08:00,pkn,6.00
2022-10-29T09:10:00,pkn,5.99
2022-10-29T09:12:00,pkn,1.20
2022-10-29T09:14:00,pkn,1.20
2022-10-29T09:16:00,pkn,1.20
2022-10-29T09:18:00,pkn,2.40
2022-10-29T09:20:00,pkn,1.20
2022-10-29T09:22:00,pkn,1.20
2022-10-29T09:24:00,pkn,1.20
2022-10-29T09:26:00,pkn,1.20
2022-10-29T09:30:00,pkn,1.20
2022-10-29T09:32:00,pkn,1.20
2022-10-29T09:34:00,pkn,1.20
2022-10-29T09:35:00,pkn,1.20
2022-10-29T09:39:00,pkn,1.20
2022-10-29T09:41:00,pkn,1.20
2022-10-29T09:43:00,pkn,1.20
2022-10-29T09:44:00,pkn,1.20
2022-10-29T09:46:00,pkn,1.20
2022-10-29T09:49:00,pkn,3.60
2022-10-29T09:51:00,pkn,8.40
2022-10-29T09:53:00,pkn,9.60
2022-10-29T09:55:00,pkn,9.60
2022-10-29T09:57:00,pkn,8.40
2022-10-29T09:58:00,pkn,4.80
2022-10-29T09:59:00,pkn,3.60
2022-10-29T10:01:00,pkn,9.60
2022-10-29T10:03:00,pkn,9.60
2022-10-29T10:05:00,pkn,9.60
2022-10-29T10:06:00,pkn,4.80
2022-10-29T10:08:00,pkn,9.60
2022-10-29T10:10:00,pkn,8.40
2022-10-29T10:11:00,pkn,1.20
2022-10-29T10:13:00,pkn,1.20
2022-10-29T10:15:00,pkn,1.20
2022-10-29T10:18:00,pkn,4.80
2022-10-29T10:20:00,pkn,9.60
2022-10-29T10:22:00,pkn,9.60
2022-10-29T10:23:00,pkn,4.80
2022-10-29T10:24:00,pkn,3.60
2022-10-29T10:26:00,pkn,9.60
2022-10-29T10:28:00,pkn,8.40
2022-10-29T10:29:00,pkn,3.60
2022-10-29T10:30:00,pkn,1.20
2022-10-29T10:31:00,pkn,9.60
2022-10-29T10:33:00,pkn,9.60
2022-10-29T10:36:00,pkn,2.40
2022-10-29T10:38:00,pkn,3.60
2022-10-29T10:39:00,pkn,2.40
2022-10-29T10:41:00,pkn,1.20
2022-10-29T10:43:00,pkn,1.20
2022-10-29T10:45:00,pkn,1.20
2022-10-29T10:47:00,pkn,5.99
2022-10-29T10:48:00,pkn,3.60
2022-10-29T10:50:00,pkn,9.60
2022-10-29T10:52:00,pkn,8.40
2022-10-29T10:54:00,pkn,9.60
2022-10-29T10:56:00,pkn,8.40
2022-10-29T10:58:00,pkn,5.99
2022-10-29T11:00:00,pkn,1.20
2022-10-29T11:02:00,pkn,1.20
2022-10-29T11:05:00,pkn,1.20
2022-10-29T11:09:00,pkn,1.20
2022-10-29T11:11:00,pkn,1.20
2022-10-29T11:13:00,pkn,1.20
2022-10-29T11:15:00,pkn,4.80
2022-10-29T11:17:00,pkn,8.40
2022-10-29T11:19:00,pkn,9.60
2022-10-29T11:21:00,pkn,8.40
2022-10-29T11:22:00,pkn,1.20
2022-10-29T11:23:00,pkn,8.40
2022-10-29T11:24:00,pkn,3.60
2022-10-29T11:26:00,pkn,1.20
2022-10-29T11:28:00,pkn,1.20
2022-10-29T11:30:00,pkn,1.20
2022-10-29T11:33:00,pkn,1.20
2022-10-29T11:37:00,pkn,1.20
2022-10-29T11:39:00,pkn,1.20
2022-10-29T11:42:00,pkn,1.20
2022-10-29T11:44:00,pkn,1.20
2022-10-29T11:46:00,pkn,1.20
2022-10-29T11:48:00,pkn,9.60
2022-10-29T11:50:00,pkn,10.80
2022-10-29T11:51:00,pkn,6.00
2022-10-29T11:53:00,pkn,10.80
2022-10-29T11:55:00,pkn,12.00
2022-10-29T11:57:00,pkn,4.80
2022-10-29T11:59:00,pkn,1.20
2022-10-29T12:00:00,pkn,1.20
2022-10-29T12:02:00,pkn,1.20
2022-10-29T12:03:00,pkn,1.20
2022-10-29T12:05:00,pkn,1.20
2022-10-29T12:08:00,pkn,2.40
2022-10-29T12:10:00,pkn,1.20
2022-10-29T12:12:00,pkn,1.20
2022-10-29T12:14:00,pkn,1.20
2022-10-29T12:15:00,pkn,1.20
2022-10-29T12:17:00,pkn,1.20
2022-10-29T12:18:00,pkn,1.20
2022-10-29T12:20:00,pkn,1.20
2022-10-29T12:22:00,pkn,2.40
2022-10-29T12:24:00,pkn,9.60
2022-10-29T12:25:00,pkn,4.80
2022-10-29T12:27:00,pkn,9.60
2022-10-29T12:28:00,pkn,5.99
2022-10-29T12:30:00,pkn,8.40
2022-10-29T12:32:00,pkn,9.60
2022-10-29T12:34:00,pkn,2.40
2022-10-29T12:35:00,pkn,2.40
2022-10-29T12:37:00,pkn,3.60
2022-10-29T12:39:00,pkn,3.60
2022-10-29T12:41:00,pkn,3.60
2022-10-29T12:43:00,pkn,3.60
2022-10-29T12:44:00,pkn,2.40
2022-10-29T12:46:00,pkn,4.80
2022-10-29T12:48:00,pkn,3.60
2022-10-29T12:50:00,pkn,3.60
2022-10-29T12:52:00,pkn,2.40
2022-10-29T12:53:00,pkn,1.20
2022-10-29T12:54:00,pkn,1.20
2022-10-29T12:56:00,pkn,2.40
2022-10-29T12:58:00,pkn,1.20
2022-10-29T13:00:00,pkn,2.40
2022-10-29T13:02:00,pkn,1.20
2022-10-29T13:04:00,pkn,2.40
2022-10-29T13:05:00,pkn,2.40
2022-10-29T13:07:00,pkn,8.40
2022-10-29T13:08:00,pkn,6.00
2022-10-29T13:10:00,pkn,12.00
2022-10-29T13:11:00,pkn,4.80
2022-10-29T13:13:00,pkn,10.80
2022-10-29T13:14:00,pkn,4.80
2022-10-29T13:16:00,pkn,2.40
2022-10-29T13:18:00,pkn,2.40
2022-10-29T13:20:00,pkn,1.20
2022-10-29T13:22:00,pkn,1.20
2022-10-29T13:25:00,pkn,1.20
2022-10-29T13:28:00,pkn,1.20
2022-10-29T13:31:00,pkn,1.20
2022-10-29T13:34:00,pkn,1.20
2022-10-29T13:38:00,pkn,1.20
2022-10-29T13:40:00,pkn,1.20
2022-10-29T13:42:00,pkn,1.20
2022-10-29T13:44:00,pkn,2.40
2022-10-29T13:46:00,pkn,1.20
2022-10-29T13:48:00,pkn,4.80
2022-10-29T13:50:00,pkn,9.60
2022-10-29T13:52:00,pkn,10.80
2022-10-29T13:53:00,pkn,4.80
2022-10-29T13:54:00,pkn,4.80
2022-10-29T13:56:00,pkn,4.80
2022-10-29T13:58:00,pkn,2.40
2022-10-29T14:01:00,pkn,1.20
2022-10-29T14:02:00,pkn,1.20
2022-10-29T14:05:00,pkn,2.40
2022-10-29T14:07:00,pkn,1.20
2022-10-29T14:10:00,pkn,1.20
2022-10-29T14:12:00,pkn,1.20
2022-10-29T14:14:00,pkn,2.40
2022-10-29T14:16:00,pkn,1.20
2022-10-29T14:18:00,pkn,1.20
2022-10-29T14:19:00,pkn,1.20
2022-10-29T14:21:00,pkn,1.20
2022-10-29T14:23:00,pkn,1.20
2022-10-29T14:24:00,pkn,1.20
2022-10-29T14:26:00,pkn,1.20
2022-10-29T14:28:00,pkn,2.40
2022-10-29T14:30:00,pkn,1.20
2022-10-29T14:33:00,pkn,2.40
2022-10-29T14:35:00,pkn,1.20
2022-10-29T14:38:00,pkn,8.40
2022-10-29T14:39:00,pkn,6.00
2022-10-29T14:41:00,pkn,9.60
2022-10-29T14:43:00,pkn,8.40
2022-10-29T14:44:00,pkn,2.40
2022-10-29T14:46:00,pkn,1.20
2022-10-29T14:48:00,pkn,2.40
2022-10-29T14:50:00,pkn,1.20
2022-10-29T14:52:00,pkn,1.20
2022-10-29T14:53:00,pkn,1.20
2022-10-29T14:55:00,pkn,1.20
2022-10-29T14:58:00,pkn,1.20
2022-10-29T15:00:00,pkn,1.20
2022-10-29T15:03:00,pkn,1.20
2022-10-29T15:05:00,pkn,1.20
2022-10-29T15:07:00,pkn,1.20
2022-10-29T15:08:00,pkn,1.20
2022-10-29T15:10:00,pkn,1.20
2022-10-29T15:11:00,pkn,1.20
2022-10-29T15:13:00,pkn,1.20
2022-10-29T15:17:00,pkn,1.20
2022-10-29T15:18:00,pkn,1.20
2022-10-29T15:20:00,pkn,1.20
2022-10-29T15:23:00,pkn,1.20
2022-10-29T15:26:00,pkn,1.20
2022-10-29T15:28:00,pkn,1.20
2022-10-29T15:30:00,pkn,1.20
2022-10-29T15:34:00,pkn,6.00
2022-10-29T15:35:00,pkn,6.00
2022-10-29T15:37:00,pkn,8.40
2022-10-29T15:39:00,pkn,9.60
2022-10-29T15:41:00,pkn,4.80
2022-10-29T15:43:00,pkn,1.20
2022-10-29T15:45:00,pkn,1.20
2022-10-29T15:48:00,pkn,1.20
2022-10-29T15:50:00,pkn,1.20
2022-10-29T15:52:00,pkn,1.20
2022-10-29T15:56:00,pkn,1.20
2022-10-29T15:58:00,pkn,1.20
2022-10-29T16:00:00,pkn,1.20
2022-10-29T16:03:00,pkn,1.20
2022-10-29T16:05:00,pkn,1.20
2022-10-29T16:06:00,pkn,1.20
2022-10-29T16:09:00,pkn,1.20
2022-10-29T16:11:00,pkn,1.20
2022-10-29T16:12:00,pkn,1.20
2022-10-29T16:14:00,pkn,1.20
2022-10-29T16:15:00,pkn,1.20
2022-10-29T16:17:00,pkn,1.20
2022-10-29T16:20:00,pkn,1.20
2022-10-29T16:22:00,pkn,1.20
2022-10-29T16:24:00,pkn,1.20
2022-10-29T16:26:00,pkn,1.20
2022-10-29T16:28:00,pkn,1.20
2022-10-29T16:30:00,pkn,1.20
2022-10-29T16:31:00,pkn,1.20
2022-10-29T16:33:00,pkn,6.00
2022-10-29T16:35:00,pkn,9.60
2022-10-29T16:36:00,pkn,4.80
2022-10-29T16:38:00,pkn,9.60
2022-10-29T16:40:00,pkn,8.40
2022-10-29T16:41:00,pkn,6.00
2022-10-29T16:42:00,pkn,4.80
2022-10-29T16:43:00,pkn,3.60
2022-10-29T16:45:00,pkn,10.80
2022-10-29T16:47:00,pkn,9.60
2022-10-29T16:49:00,pkn,9.60
2022-10-29T16:51:00,pkn,9.60
2022-10-29T16:53:00,pkn,3.60
2022-10-29T16:55:00,pkn,1.20
2022-10-29T16:56:00,pkn,1.20
2022-10-29T16:58:00,pkn,1.20
2022-10-29T17:00:00,pkn,2.40
2022-10-29T17:01:00,pkn,3.60
2022-10-29T17:03:00,pkn,9.60
2022-10-29T17:05:00,pkn,8.40
2022-10-29T17:06:00,pkn,1.20
2022-10-29T17:07:00,pkn,8.40
2022-10-29T17:08:00,pkn,1.20
2022-10-29T17:09:00,pkn,9.60
2022-10-29T17:11:00,pkn,8.40
2022-10-29T17:13:00,pkn,10.80
2022-10-29T17:15:00,pkn,12.00
2022-10-29T17:17:00,pkn,8.40
2022-10-29T17:18:00,pkn,4.80
2022-10-29T17:19:00,pkn,6.00
2022-10-29T17:20:00,pkn,4.80
2022-10-29T17:21:00,pkn,3.60
2022-10-29T17:23:00,pkn,3.60
2022-10-29T17:25:00,pkn,1.20
2022-10-29T17:27:00,pkn,1.20
2022-10-29T17:29:00,pkn,1.20
2022-10-29T17:30:00,pkn,1.20
2022-10-29T17:32:00,pkn,1.20
2022-10-29T17:34:00,pkn,1.20
2022-10-29T17:36:00,pkn,1.20
2022-10-29T17:37:00,pkn,2.40
2022-10-29T17:38:00,pkn,9.60
2022-10-29T17:40:00,pkn,10.80
2022-10-29T17:41:00,pkn,7.20
2022-10-29T17:43:00,pkn,13.20
2022-10-29T17:44:00,pkn,6.00
2022-10-29T17:46:00,pkn,13.20
2022-10-29T17:48:00,pkn,9.60
2022-10-29T17:50:00,pkn,6.00
2022-10-29T17:51:00,pkn,2.40
2022-10-29T17:52:00,pkn,2.40
2022-10-29T17:53:00,pkn,2.40
2022-10-29T17:55:00,pkn,6.00
2022-10-29T17:57:00,pkn,2.40
2022-10-29T17:59:00,pkn,3.60
2022-10-29T18:00:00,pkn,1.20
2022-10-29T18:02:00,pkn,4.80
2022-10-29T18:04:00,pkn,3.60
2022-10-29T18:06:00,pkn,3.60
2022-10-29T18:08:00,pkn,9.60
2022-10-29T18:10:00,pkn,10.80
2022-10-29T18:11:00,pkn,6.00
2022-10-29T18:13:00,pkn,9.60
2022-10-29T18:15:00,pkn,10.80
2022-10-29T18:16:00,pkn,3.60
2022-10-29T18:18:00,pkn,2.40
2022-10-29T18:20:00,pkn,1.20
2022-10-29T18:22:00,pkn,1.20
2022-10-29T18:23:00,pkn,1.20
2022-10-29T18:25:00,pkn,1.20
2022-10-29T18:26:00,pkn,1.20
2022-10-29T18:29:00,pkn,2.40
2022-10-29T18:32:00,pkn,2.40
2022-10-29T18:34:00,pkn,1.20
2022-10-29T18:36:00,pkn,1.20
2022-10-29T18:38:00,pkn,1.20
2022-10-29T18:40:00,pkn,4.80
2022-10-29T18:41:00,pkn,6.00
2022-10-29T18:43:00,pkn,9.60
2022-10-29T18:44:00,pkn,1.20
2022-10-29T18:45:00,pkn,7.20
2022-10-29T18:46:00,pkn,6.00
2022-10-29T18:48:00,pkn,4.80
2022-10-29T18:50:00,pkn,2.40
2022-10-29T18:53:00,pkn,2.40
2022-10-29T18:55:00,pkn,1.20
2022-10-29T18:57:00,pkn,1.20
2022-10-29T18:58:00,pkn,1.20
2022-10-29T19:00:00,pkn,1.20
2022-10-29T19:02:00,pkn,1.20
2022-10-29T19:03:00,pkn,1.20
2022-10-29T19:05:00,pkn,1.20
2022-10-29T19:06:00,pkn,1.20
2022-10-29T19:08:00,pkn,1.20
2022-10-29T19:10:00,pkn,1.20
2022-10-29T19:11:00,pkn,1.20
2022-10-29T19:13:00,pkn,1.20
2022-10-29T19:15:00,pkn,3.60
2022-10-29T19:17:00,pkn,9.60
2022-10-29T19:19:00,pkn,9.60
2022-10-29T19:21:00,pkn,8.40
2022-10-29T19:22:00,pkn,6.00
2022-10-29T19:24:00,pkn,2.40
2022-10-29T19:26:00,pkn,1.20
2022-10-29T19:27:00,pkn,1.20
2022-10-29T19:29:00,pkn,1.20
2022-10-29T19:31:00,pkn,1.20
2022-10-29T19:33:00,pkn,2.40
2022-10-29T19:35:00,pkn,1.20
2022-10-29T19:37:00,pkn,1.20
2022-10-29T19:38:00,pkn,1.20
2022-10-29T19:39:00,pkn,1.20
2022-10-29T19:41:00,pkn,1.20
2022-10-29T19:42:00,pkn,1.20
2022-10-29T19:44:00,pkn,1.20
2022-10-29T19:45:00,pkn,1.20
2022-10-29T19:46:00,pkn,1.20
2022-10-29T19:48:00,pkn,2.40
2022-10-29T19:50:00,pkn,2.40
2022-10-29T19:53:00,pkn,3.60
2022-10-29T19:54:00,pkn,1.20
2022-10-29T19:55:00,pkn,3.60
2022-10-29T19:56:00,pkn,2.40
2022-10-29T19:57:00,pkn,9.60
2022-10-29T19:59:00,pkn,8.40
2022-10-29T20:01:00,pkn,10.80
2022-10-29T20:03:00,pkn,7.20
2022-10-29T20:04:00,pkn,1.20
2022-10-29T20:06:00,pkn,1.20
2022-10-29T20:07:00,pkn,1.20
2022-10-29T20:08:00,pkn,1.20
2022-10-29T20:10:00,pkn,2.40
2022-10-29T20:11:00,pkn,1.20
2022-10-29T20:13:00,pkn,2.40
2022-10-29T20:15:00,pkn,2.40
2022-10-29T20:17:00,pkn,1.20
2022-10-29T20:18:00,pkn,1.20
2022-10-29T20:19:00,pkn,1.20
2022-10-29T20:20:00,pkn,2.40
2022-10-29T20:22:00,pkn,2.40
2022-10-29T20:23:00,pkn,1.20
2022-10-29T20:25:00,pkn,1.20
2022-10-29T20:27:00,pkn,2.40
2022-10-29T20:29:00,pkn,2.40
2022-10-29T20:31:00,pkn,1.20
2022-10-29T20:33:00,pkn,2.40
2022-10-29T20:34:00,pkn,1.20
2022-10-29T20:36:00,pkn,1.20
2022-10-29T20:37:00,pkn,1.20
2022-10-29T20:38:00,pkn,1.20
2022-10-29T20:40:00,pkn,6.00
2022-10-29T20:42:00,pkn,9.60
2022-10-29T20:44:00,pkn,9.60
2022-10-29T20:46:00,pkn,10.80
2022-10-29T20:47:00,pkn,5.99
2022-10-29T20:48:00,pkn,1.20
2022-10-29T20:49:00,pkn,1.20
2022-10-29T20:51:00,pkn,2.40
2022-10-29T20:53:00,pkn,2.40
2022-10-29T20:55:00,pkn,2.40
2022-10-29T20:57:00,pkn,1.20
2022-10-29T20:59:00,pkn,2.40
2022-10-29T21:01:00,pkn,2.40
2022-10-29T21:03:00,pkn,2.40
2022-10-29T21:05:00,pkn,2.40
2022-10-29T21:06:00,pkn,1.20
2022-10-29T21:09:00,pkn,2.40
2022-10-29T21:10:00,pkn,1.20
2022-10-29T21:11:00,pkn,1.20
2022-10-29T21:13:00,pkn,1.20
2022-10-29T21:15:00,pkn,2.40
2022-10-29T21:16:00,pkn,1.20
2022-10-29T21:18:00,pkn,2.40
2022-10-29T21:19:00,pkn,1.20
2022-10-29T21:21:00,pkn,1.20
2022-10-29T21:23:00,pkn,4.80
2022-10-29T21:25:00,pkn,10.80
2022-10-29T21:26:00,pkn,1.20
2022-10-29T21:27:00,pkn,7.20
2022-10-29T21:28:00,pkn,2.40
2022-10-29T21:29:00,pkn,8.40
2022-10-29T21:30:00,pkn,1.20
2022-10-29T21:31:00,pkn,3.60
2022-10-29T21:33:00,pkn,2.40
2022-10-29T21:34:00,pkn,1.20
2022-10-29T21:36:00,pkn,1.20
2022-10-29T21:37:00,pkn,1.20
2022-10-29T21:38:00,pkn,1.20
2022-10-29T21:40:00,pkn,2.40
2022-10-29T21:42:00,pkn,1.20
2022-10-29T21:43:00,pkn,1.20
2022-10-29T21:45:00,pkn,2.40
2022-10-29T21:47:00,pkn,2.40
2022-10-29T21:49:00,pkn,1.20
2022-10-29T21:50:00,pkn,1.20
2022-10-29T21:51:00,pkn,1.20
2022-10-29T21:53:00,pkn,2.40
2022-10-29T21:55:00,pkn,2.40
2022-10-29T21:57:00,pkn,1.20
2022-10-29T21:58:00,pkn,1.20
2022-10-29T22:00:00,pkn,2.40
2022-10-29T22:02:00,pkn,1.20
2022-10-29T22:04:00,pkn,2.40
2022-10-29T22:06:00,pkn,2.40
2022-10-29T22:09:00,pkn,2.40
2022-10-29T22:11:00,pkn,2.40
2022-10-29T22:12:00,pkn,2.40
2022-10-29T22:14:00,pkn,9.60
2022-10-29T22:16:00,pkn,10.80
2022-10-29T22:17:00,pkn,1.20
2022-10-29T22:18:00,pkn,8.40
2022-10-29T22:20:00,pkn,4.80
2022-10-29T22:21:00,pkn,1.20
2022-10-29T22:23:00,pkn,2.40
2022-10-29T22:24:00,pkn,1.20
2022-10-29T22:27:00,pkn,2.40
2022-10-29T22:28:00,pkn,1.20
2022-10-29T22:30:00,pkn,2.40
2022-10-29T22:31:00,pkn,1.20
2022-10-29T22:33:00,pkn,1.20
2022-10-29T22:34:00,pkn,1.20
2022-10-29T22:36:00,pkn,2.40
2022-10-29T22:38:00,pkn,2.40
2022-10-29T22:40:00,pkn,2.40
2022-10-29T22:41:00,pkn,1.20
2022-10-29T22:43:00,pkn,1.20
2022-10-29T22:45:00,pkn,2.40
2022-10-29T22:46:00,pkn,1.20
2022-10-29T22:47:00,pkn,1.20
2022-10-29T22:49:00,pkn,4.80
2022-10-29T22:50:00,pkn,4.80
2022-10-29T22:52:00,pkn,10.80
2022-10-29T22:53:00,pkn,6.00
2022-10-29T22:55:00,pkn,8.40
2022-10-29T22:57:00,pkn,10.80
2022-10-29T22:58:00,pkn,6.00
2022-10-29T22:59:00,pkn,3.60
2022-10-29T23:00:00,pkn,1.20
2022-10-29T23:01:00,pkn,1.20
2022-10-29T23:03:00,pkn,2.40
2022-10-29T23:05:00,pkn,1.20
2022-10-29T23:06:00,pkn,1.20
2022-10-29T23:07:00,pkn,1.20
2022-10-29T23:09:00,pkn,1.20
2022-10-29T23:10:00,pkn,1.20
2022-10-29T23:11:00,pkn,1.20
2022-10-29T23:13:00,pkn,2.40
2022-10-29T23:15:00,pkn,2.40
2022-10-29T23:17:00,pkn,2.40
2022-10-29T23:18:00,pkn,1.20
2022-10-29T23:20:00,pkn,1.20
2022-10-29T23:22:00,pkn,3.60
2022-10-29T23:24:00,pkn,9.60
2022-10-29T23:26:00,pkn,10.80
2022-10-29T23:28:00,pkn,9.60
2022-10-29T23:30:00,pkn,10.80
2022-10-29T23:32:00,pkn,8.40
2022-10-29T23:34:00,pkn,9.60
2022-10-29T23:35:00,pkn,1.20
2022-10-29T23:37:00,pkn,2.40
2022-10-29T23:38:00,pkn,1.20
2022-10-29T23:40:00,pkn,1.20
2022-10-29T23:41:00,pkn,1.20
2022-10-29T23:42:00,pkn,1.20
2022-10-29T23:44:00,pkn,2.40
2022-10-29T23:47:00,pkn,2.40
2022-10-29T23:49:00,pkn,2.40
2022-10-29T23:51:00,pkn,2.40
2022-10-29T23:53:00,pkn,1.20
2022-10-29T23:54:00,pkn,1.20
2022-10-29T23:56:00,pkn,4.80
2022-10-29T23:58:00,pkn,10.80
